Wind_Speed
4 5 6 7 8 8 8 8 8 9 9 10 10 11 12 12 13 13 14 15 15 16 16 17 17 18 20 21 21 22 22 23 23 24 24 25 26 26 27 28 28 28 29 29 29 28 28 27 27 25 24 23 23 23 24 25 26 27 27 27 26 24 23 23 22 21 20 20 19
5 6 7 8 8 8 8 8 8 9 9 10 10 11 12 13 13 14 15 16 16 17 18 18 19 19 20 21 21 22 22 23 24 24 25 26 26 27 28 28 29 30 30 31 31 30 30 29 28 26 24 23 22 22 24 25 26 27 28 28 26 24 23 23 23 22 21 21 20
6 6 7 7 7 7 8 8 8 9 9 10 11 12 13 14 15 15 16 17 18 18 18 19 19 20 21 22 22 22 22 23 24 25 25 26 26 27 28 28 29 30 30 31 31 31 31 30 29 27 25 23 23 23 23 24 25 26 27 27 26 24 23 23 22 22 21 20 20
6 6 6 6 7 7 7 8 9 9 10 11 12 13 15 16 16 17 17 18 18 18 18 19 20 21 22 22 23 23 23 24 25 25 26 26 27 27 28 28 29 29 30 30 31 31 31 31 28 26 24 24 24 24 23 24 24 25 26 26 25 24 23 22 22 21 20 21 21
5 6 6 6 6 6 7 8 9 10 11 12 14 15 16 17 17 17 17 18 17 18 18 20 21 22 22 23 23 24 24 25 25 26 26 27 27 27 28 28 28 29 29 29 30 30 31 30 28 25 23 24 23 24 24 25 25 25 25 26 25 25 23 23 22 21 21 21 21
5 5 5 6 6 6 7 8 9 11 12 14 15 17 17 17 17 17 17 17 17 19 20 21 22 23 23 23 23 24 25 25 26 26 27 27 27 27 27 27 28 28 29 29 29 29 29 29 27 25 23 22 23 24 25 26 26 26 26 26 26 25 24 23 23 22 21 22 21
5 5 5 5 6 7 8 9 11 12 14 15 16 17 17 17 17 17 18 18 19 20 21 21 22 22 22 23 23 24 24 24 24 25 25 25 25 25 26 26 27 27 28 28 28 28 28 28 26 24 23 22 22 23 24 25 26 26 26 26 26 25 25 25 25 24 23 23 23
4 4 5 6 7 8 10 11 13 14 15 16 16 17 17 17 17 18 19 19 19 20 20 20 21 21 22 23 24 25 24 24 23 23 22 22 22 22 23 24 24 24 25 26 27 27 27 26 24 23 23 23 23 23 24 24 25 26 27 27 27 27 27 27 27 26 26 25 25
4 4 5 7 8 10 12 13 14 15 16 16 16 17 17 17 18 18 19 19 20 20 21 21 21 22 22 23 24 24 23 22 22 21 21 21 21 22 22 22 22 22 22 23 23 24 24 23 23 23 23 23 23 24 24 25 25 26 27 28 28 29 29 28 28 28 28 28 28
4 5 7 9 10 12 13 14 15 15 16 16 16 17 17 18 18 19 19 20 21 21 21 21 21 22 22 22 22 21 20 20 20 20 21 21 21 21 22 22 22 23 23 22 22 22 22 22 23 24 24 25 25 26 26 27 27 28 28 28 28 30 31 31 30 30 29 29 29
5 7 9 10 12 13 14 15 15 15 15 15 15 16 17 18 18 19 19 20 20 20 20 20 20 20 20 20 20 20 19 20 20 20 21 21 22 22 22 23 23 23 24 24 23 23 23 22 23 24 25 25 26 26 27 28 28 29 30 30 30 30 31 32 32 32 31 31 30
7 9 11 12 13 14 14 14 14 14 14 14 15 16 16 17 17 18 18 19 19 19 19 19 19 19 19 19 20 20 20 20 21 21 22 23 23 23 23 23 24 24 24 24 24 23 23 23 24 25 25 26 26 26 27 27 28 29 30 30 31 31 32 33 33 33 33 33 31
9 10 12 13 14 14 14 14 13 14 14 15 16 17 17 17 18 18 18 18 19 19 20 20 20 20 20 20 21 21 21 22 22 22 23 23 23 24 24 24 24 24 24 24 23 23 23 23 24 25 26 27 27 27 27 28 28 29 30 30 31 33 34 34 34 35 34 34 33
10 11 12 13 14 14 14 13 14 15 16 17 17 17 18 18 18 18 18 19 20 21 21 21 21 21 21 21 22 22 22 22 23 23 23 24 24 24 24 24 24 24 24 24 23 23 24 24 25 26 27 28 28 28 28 28 29 29 30 31 32 33 34 34 35 35 34 34 35
12 12 13 14 14 14 14 15 15 16 17 17 17 18 18 18 18 19 20 20 21 22 22 22 22 22 22 22 22 22 22 23 23 24 24 24 24 24 24 24 24 24 24 24 24 24 24 25 26 26 27 28 29 29 29 29 30 30 31 31 32 33 34 34 34 34 34 34 35
13 14 15 15 15 16 16 16 16 16 17 17 18 18 19 19 19 20 21 22 22 22 22 22 23 23 23 23 23 23 23 23 23 24 24 24 24 24 24 25 25 25 25 25 25 25 25 26 26 27 27 28 29 29 30 30 31 31 31 32 32 33 34 34 35 35 34 35 35
14 16 16 16 17 17 17 17 17 17 17 18 19 19 19 20 21 21 22 22 23 23 23 24 24 24 24 24 24 23 23 24 24 24 24 25 25 25 26 26 26 26 26 26 26 26 26 26 27 27 27 28 29 29 30 31 31 32 32 33 33 33 34 35 35 35 35 35 35
16 17 17 17 17 17 17 17 17 18 18 19 19 20 20 21 22 23 23 24 23 24 25 25 25 25 25 25 25 24 24 24 24 25 25 25 26 26 27 27 27 27 26 27 27 27 27 27 27 27 27 28 28 29 30 30 31 31 32 33 33 34 34 35 35 35 35 35 35
16 16 17 16 17 17 17 18 18 18 19 20 20 21 22 23 23 24 25 25 25 24 25 26 26 26 26 26 26 25 25 25 25 26 26 26 26 26 27 27 27 27 27 27 27 28 28 27 27 27 27 28 28 29 29 30 30 31 32 32 33 34 34 35 35 35 35 35 35
16 16 16 16 17 17 18 18 19 19 20 21 22 23 24 24 25 25 25 26 26 25 26 26 27 27 27 27 27 27 26 26 26 26 26 27 27 27 27 27 28 28 28 28 28 28 27 27 27 27 27 27 28 28 29 29 30 31 31 32 33 33 34 34 34 34 35 35 36
15 16 16 17 17 18 18 19 19 20 21 22 23 24 25 26 26 26 26 27 27 26 26 26 27 27 28 28 28 28 27 27 26 26 27 27 27 27 27 27 28 28 28 28 28 27 27 27 27 27 27 27 28 28 29 29 29 30 31 31 32 32 33 34 34 34 33 34 35
16 16 17 17 17 18 19 20 20 21 22 23 24 25 26 27 27 28 28 28 27 27 27 26 27 27 27 28 28 28 28 28 28 27 27 27 27 27 27 27 28 28 28 28 28 28 28 28 27 27 27 27 28 29 29 29 29 30 31 31 32 32 33 34 34 34 34 34 34
16 17 17 17 18 19 20 21 21 22 22 23 24 25 27 28 28 29 29 29 28 28 28 27 27 27 28 28 28 28 28 28 29 28 27 27 27 27 27 27 27 28 28 28 27 26 26 26 26 26 26 26 27 27 28 28 29 29 29 30 31 32 33 33 34 34 35 35 34
17 17 18 18 19 20 21 21 22 22 23 24 25 26 27 28 29 29 29 30 29 29 28 28 28 28 29 29 28 27 27 27 28 28 28 27 27 27 27 27 27 27 27 27 26 25 25 25 26 25 25 25 26 26 26 27 27 27 28 29 29 30 31 32 33 34 34 35 35
17 18 19 19 20 21 22 22 22 23 24 24 25 26 27 28 29 29 29 30 30 29 29 28 28 28 28 28 28 27 26 26 26 27 28 28 28 27 27 27 27 27 26 26 26 26 26 26 26 27 26 26 26 26 26 27 27 27 28 29 29 29 30 30 31 32 33 34 35
18 19 19 20 21 22 22 23 23 24 24 25 26 26 27 27 28 29 30 30 30 30 29 28 28 28 27 27 27 26 26 25 26 26 27 28 29 29 28 27 27 27 26 27 27 28 28 28 29 29 29 28 28 28 28 28 28 28 29 30 30 30 31 31 31 31 32 32 33
19 19 20 21 22 23 23 24 24 24 25 25 26 26 27 28 28 28 29 29 29 29 29 28 27 26 26 25 25 26 26 26 26 27 28 28 28 28 29 28 28 26 26 27 28 29 29 30 30 30 30 30 30 29 29 29 29 29 29 30 31 31 32 32 32 33 32 32 32
19 20 21 22 23 24 24 25 25 25 25 25 26 27 27 28 28 27 28 29 29 29 28 27 26 25 24 23 25 26 26 26 26 27 28 28 27 28 28 28 28 28 28 28 29 30 30 31 31 32 32 31 31 30 30 30 30 30 29 31 31 32 32 32 33 33 33 33 32
20 21 22 23 24 24 25 25 25 25 25 26 26 27 28 28 28 28 28 29 28 27 27 26 26 25 23 24 26 27 27 27 27 27 27 27 27 28 29 29 29 29 30 30 31 31 32 32 33 33 33 33 31 30 29 29 29 29 29 30 30 31 31 31 31 32 32 32 32
21 21 22 23 24 25 25 24 24 25 25 26 26 27 28 28 28 28 28 28 27 27 26 25 25 25 25 26 27 27 27 28 28 27 27 27 27 28 29 30 30 30 31 31 32 32 33 33 34 34 34 34 33 32 31 30 30 30 30 30 30 30 31 31 31 32 32 32 32
21 22 22 23 24 24 24 24 25 25 25 26 27 27 28 28 28 28 28 27 27 27 27 26 25 26 26 26 27 27 28 28 28 28 27 27 28 29 29 30 31 31 32 32 33 33 33 34 34 34 34 34 33 32 31 31 31 31 31 31 31 31 32 32 32 32 33 32 32
22 22 22 23 23 23 24 24 24 25 26 26 27 27 27 27 28 27 27 27 27 27 27 27 27 27 27 27 27 27 28 28 28 28 28 28 28 30 31 31 32 32 33 33 33 33 34 34 34 34 34 34 33 33 32 32 32 32 32 33 33 33 33 33 33 33 33 33 33
22 22 22 22 22 23 23 24 24 25 26 27 27 27 27 28 28 28 27 27 26 26 26 26 26 26 27 27 27 28 28 28 28 28 29 29 29 30 31 32 32 32 32 33 33 34 34 34 34 35 35 34 34 33 33 33 32 32 32 33 33 34 34 35 35 35 35 34 34
22 22 21 21 22 23 23 24 24 25 26 27 27 27 27 27 28 28 27 27 26 26 25 25 25 25 26 26 26 27 28 28 28 28 29 29 29 30 31 31 31 32 33 33 34 35 35 36 36 36 36 35 34 33 33 33 32 32 33 33 34 34 34 35 36 36 36 36 35
21 21 21 21 22 23 23 24 24 25 26 26 27 28 28 27 27 27 27 26 26 26 25 25 24 24 25 26 26 27 27 28 28 28 29 29 30 30 31 32 33 34 35 35 35 36 36 36 36 36 36 36 34 32 31 31 32 32 33 34 35 35 36 36 36 37 37 36 36
21 21 21 22 22 23 23 24 24 25 26 26 27 27 28 27 27 26 25 25 25 25 25 25 24 25 25 26 27 27 27 28 28 29 29 30 30 31 32 33 34 35 36 36 36 36 36 36 36 36 36 34 32 30 30 29 29 31 32 33 34 35 36 37 37 37 37 37 37
20 20 21 22 22 23 23 24 24 25 25 26 26 27 27 26 27 26 25 24 25 25 25 25 25 25 26 27 27 28 28 28 28 29 30 30 30 31 31 32 34 35 36 36 36 36 36 36 36 36 35 33 30 29 28 28 27 28 29 31 32 34 35 35 36 36 37 38 38
20 20 20 21 21 23 23 24 24 24 25 26 26 26 26 26 26 26 25 24 23 24 24 25 26 26 27 27 28 29 29 29 29 29 30 30 30 30 31 32 33 35 36 36 36 36 36 37 37 36 35 33 30 28 27 26 26 26 27 28 30 31 32 32 32 33 35 37 38
20 19 20 20 21 22 23 23 23 23 24 25 25 26 26 25 25 25 24 23 23 23 24 25 26 27 27 28 28 29 29 30 29 29 29 30 30 31 31 31 33 34 35 36 37 37 37 37 36 36 36 34 31 28 26 25 25 25 26 27 28 29 30 30 30 31 33 35 38
20 20 20 20 21 22 22 23 23 23 23 24 25 25 25 24 24 24 24 23 22 22 24 25 26 27 27 27 28 28 29 30 30 29 29 30 31 31 32 32 32 34 35 36 36 36 36 36 36 36 35 33 31 28 26 24 24 25 26 26 26 27 27 28 29 30 31 33 35
20 20 20 21 21 21 21 22 23 23 23 23 24 24 24 24 23 23 22 22 23 23 24 24 26 27 27 27 27 27 29 30 30 30 30 30 31 31 31 31 32 33 34 35 35 36 36 36 35 35 35 33 31 28 26 24 23 24 25 26 26 26 26 27 27 28 29 31 32
Wind_Direction
1 353 349 346 344 343 342 340 339 337 335 333 331 329 328 326 324 321 319 318 315 311 309 306 304 304 306 306 306 304 302 300 298 297 295 294 293 293 292 292 292 293 293 293 293 294 294 294 294 292 288 283 277 270 264 260 258 257 256 255 253 252 250 248 248 247 245 245 247
348 344 342 340 338 336 334 332 330 329 328 326 325 323 322 321 320 317 315 313 311 309 307 305 304 304 304 304 302 300 298 296 295 294 293 292 291 291 290 290 290 290 290 291 291 291 291 291 291 289 287 283 279 273 268 263 259 257 256 255 254 253 251 250 250 248 246 246 247
340 338 336 334 332 329 327 324 322 321 321 320 320 320 319 319 317 314 312 310 309 307 305 303 303 303 302 301 299 297 295 294 293 292 291 290 290 289 289 289 289 288 288 288 288 288 288 288 287 285 283 280 277 273 269 265 261 258 256 255 254 253 251 251 250 249 247 246 247
332 330 328 325 322 320 318 316 316 316 317 317 318 318 318 317 315 313 311 309 307 305 303 302 302 301 300 298 296 294 293 292 291 290 289 289 288 288 288 288 287 287 287 286 286 286 286 286 285 282 279 276 273 271 268 265 262 258 256 256 255 253 252 252 251 249 248 248 250
322 319 317 313 312 311 311 312 314 315 316 317 318 318 318 316 314 312 309 307 304 302 301 301 300 299 298 296 295 293 292 291 290 289 288 288 288 287 287 287 286 286 285 285 285 284 285 285 284 280 277 274 271 268 266 264 261 258 256 256 256 255 253 252 251 249 248 249 250
309 306 304 303 304 307 310 313 315 316 317 318 318 318 316 314 312 309 305 302 301 301 301 300 299 298 297 295 294 293 291 290 290 289 288 288 287 287 287 286 286 285 285 284 283 283 283 283 282 279 276 273 271 268 265 263 259 257 255 255 254 253 252 252 251 250 249 249 248
293 292 294 298 304 309 313 315 317 318 319 319 318 316 314 312 310 307 305 303 302 302 301 300 299 297 296 295 293 292 291 290 289 288 288 287 286 285 285 285 285 284 283 283 282 281 280 279 278 276 274 273 271 269 265 261 258 255 253 252 252 252 251 251 251 251 250 249 248
278 283 292 302 310 314 317 319 319 320 319 318 316 314 313 312 310 308 306 305 302 301 300 299 297 296 295 294 293 292 291 290 289 288 286 285 284 283 283 283 282 281 280 280 280 279 277 275 273 272 271 270 269 268 265 262 258 256 253 252 252 251 251 250 250 250 250 249 248
271 287 302 312 317 319 321 321 321 320 318 316 315 315 314 313 311 309 306 304 302 301 300 298 296 296 295 294 294 293 291 290 289 288 287 286 284 284 283 283 281 280 279 278 277 276 274 272 270 269 268 267 266 265 265 263 261 258 256 255 254 253 252 252 251 250 250 250 249
288 305 315 320 322 323 324 324 323 321 318 315 314 315 315 313 311 309 306 304 303 301 300 298 297 297 295 294 294 292 291 290 289 289 288 286 285 284 283 283 282 281 280 279 277 276 275 272 270 267 266 264 264 263 263 263 262 260 259 257 256 256 255 254 253 252 251 250 250
308 317 322 325 326 327 326 324 322 319 316 313 313 314 314 313 311 308 306 305 303 301 299 299 298 297 296 295 294 293 292 291 291 290 289 287 286 284 283 282 282 281 280 279 278 277 276 273 270 268 267 265 264 264 263 261 260 260 259 259 258 258 257 256 255 254 253 252 251
318 324 327 329 329 329 327 324 320 317 315 314 314 315 314 312 309 308 306 305 303 301 300 300 299 298 297 296 295 295 295 293 292 291 290 288 287 285 284 283 282 281 280 279 278 277 274 272 270 270 269 267 267 266 264 262 260 260 259 259 258 258 257 257 256 255 254 254 253
323 328 330 331 332 330 327 323 320 319 318 317 316 315 314 312 310 308 307 305 303 303 302 302 301 300 298 298 297 297 296 295 293 292 290 289 287 286 285 284 282 281 280 279 278 276 274 272 271 270 270 270 269 268 266 264 263 261 260 259 258 258 257 256 256 255 255 254 254
328 331 332 333 332 330 326 323 322 321 320 317 316 315 313 311 310 309 308 306 305 305 304 304 303 301 300 299 298 297 296 295 294 292 291 289 288 287 285 285 283 282 281 280 278 276 274 273 272 272 271 271 270 269 267 266 264 263 262 261 259 258 257 256 256 255 255 254 254
331 333 333 333 332 329 326 324 323 321 319 316 315 313 312 311 310 309 309 307 307 306 305 305 304 303 301 300 299 298 296 295 294 293 292 290 289 287 286 285 285 284 282 281 279 277 275 274 273 273 273 272 271 270 269 267 265 264 263 261 260 259 258 257 256 255 254 253 253
334 335 335 333 331 328 326 324 322 319 317 314 313 313 312 311 311 310 310 309 308 307 306 305 304 304 303 302 301 299 298 297 295 294 293 291 290 289 288 287 286 285 284 282 281 279 277 275 274 274 273 272 271 270 270 268 267 265 264 262 261 260 259 258 257 255 254 253 253
336 336 335 333 330 327 324 322 319 317 315 313 313 313 312 312 311 311 310 309 309 307 306 305 304 304 304 303 303 301 300 299 297 295 294 292 292 291 290 288 287 286 285 283 282 280 279 277 276 274 273 272 271 271 270 269 268 266 265 263 262 261 260 258 257 256 255 253 252
335 336 334 331 328 324 321 318 316 314 313 312 312 312 312 312 312 311 311 310 309 308 306 306 305 305 304 304 303 302 301 299 297 296 294 293 292 291 290 289 288 286 285 284 282 281 280 278 277 275 274 272 271 270 270 269 268 267 266 265 264 263 261 260 258 257 255 254 253
334 333 331 327 323 320 318 316 314 313 313 312 312 312 313 313 312 312 311 311 310 308 307 306 306 305 305 304 303 302 301 299 297 296 294 293 292 291 290 289 288 287 285 284 282 281 279 278 277 275 274 272 271 270 269 268 268 267 267 266 265 264 263 261 260 258 256 254 253
332 330 326 322 320 318 316 315 314 313 313 313 313 313 314 314 314 313 312 311 310 309 308 307 306 306 305 304 303 302 301 299 297 296 295 294 293 291 290 289 288 287 285 283 282 280 278 277 276 274 273 271 270 269 269 268 268 267 267 266 266 265 264 263 261 260 258 255 254
328 325 322 320 318 317 316 315 314 314 314 314 314 315 315 315 315 314 312 311 311 310 309 307 306 305 305 304 303 302 301 299 297 296 295 294 292 291 290 289 288 286 284 282 281 279 278 276 275 274 272 271 270 269 268 268 267 267 266 266 265 265 264 264 263 262 261 258 255
323 321 320 319 318 317 316 316 315 315 315 315 315 316 316 316 315 314 313 312 311 310 309 307 306 305 304 303 302 300 299 299 297 295 294 293 292 291 290 289 288 286 284 282 280 279 278 276 275 273 272 271 270 269 268 267 266 266 265 265 264 264 264 264 263 263 263 261 259
320 320 319 319 318 318 317 317 316 316 316 316 316 317 316 316 315 314 314 313 311 310 309 307 305 304 303 301 300 298 297 297 297 295 294 293 292 291 290 289 287 285 283 282 280 279 278 277 276 274 272 271 270 269 268 266 265 265 264 264 264 263 263 262 262 262 262 261 260
319 319 319 319 319 319 318 318 317 317 317 317 317 317 316 316 315 314 313 312 310 309 308 306 304 303 302 301 299 297 296 294 295 295 295 294 292 292 291 289 287 285 284 282 281 279 278 278 277 276 275 273 272 270 269 268 266 265 265 265 264 264 263 262 261 260 260 260 260
318 319 319 320 320 320 319 319 318 318 318 317 317 317 316 316 315 314 312 311 310 309 307 305 303 302 301 300 299 298 296 294 294 295 295 295 294 292 291 290 288 286 284 283 281 279 278 277 277 276 276 275 274 273 271 269 268 267 267 266 266 266 265 264 262 261 260 259 258
318 319 319 320 320 320 320 319 319 318 318 318 318 317 316 315 314 313 311 310 308 308 307 304 303 302 300 299 299 298 297 295 294 294 294 294 294 294 292 290 289 287 285 283 282 281 279 277 276 275 275 274 274 273 272 271 269 267 267 266 266 266 266 266 265 263 261 260 258
318 319 319 320 321 321 320 320 319 318 318 317 317 316 315 314 312 311 310 308 307 306 306 304 303 302 300 298 298 298 297 296 295 294 294 294 293 293 292 291 289 287 284 283 282 281 280 278 276 275 274 273 273 272 272 271 270 268 266 265 264 264 264 264 264 264 263 262 261
317 319 320 321 321 321 320 319 319 318 317 316 315 314 314 313 311 309 307 307 306 306 305 304 303 302 300 298 298 298 297 296 295 295 295 294 292 292 291 290 289 286 284 283 282 281 280 278 277 276 274 273 272 272 271 271 270 269 267 265 264 263 262 262 262 262 262 262 262
318 320 321 321 320 320 319 318 317 316 316 315 314 313 313 312 310 309 307 307 306 305 304 304 304 302 300 298 299 298 298 296 295 295 295 294 292 291 291 290 288 286 284 283 282 281 280 279 278 276 275 273 272 271 271 270 269 268 267 266 264 263 261 261 260 260 260 260 260
318 320 320 320 319 318 317 316 315 315 314 314 313 313 312 311 309 308 307 306 305 304 302 302 301 300 298 298 298 298 297 297 297 296 295 294 292 291 290 289 288 286 285 284 283 282 281 280 279 277 276 274 272 271 270 269 268 268 267 265 264 262 261 260 260 259 258 258 258
318 319 318 318 317 316 315 314 314 314 314 313 313 312 311 309 308 307 306 306 304 304 303 301 299 298 297 297 298 298 297 297 297 297 295 294 292 290 290 289 288 287 286 285 285 283 282 281 280 278 277 275 273 270 269 268 267 266 265 264 263 262 261 260 259 259 258 257 257
317 318 317 316 314 314 313 314 313 313 313 313 312 311 310 309 307 306 305 305 304 304 303 302 301 300 299 299 299 298 298 297 297 297 295 294 292 291 290 289 289 288 287 287 286 285 283 282 281 280 278 276 274 271 269 267 266 265 264 263 262 261 260 260 259 258 257 256 255
317 316 315 313 312 312 312 313 313 313 313 312 311 310 309 308 307 306 306 305 305 304 303 302 300 300 300 300 299 299 298 298 296 296 295 294 292 291 291 290 289 289 288 288 287 286 285 284 283 281 280 278 275 273 271 269 266 265 263 263 262 260 259 258 258 257 257 256 254
315 315 313 312 311 312 312 312 313 313 313 312 311 310 309 308 307 307 306 306 306 304 303 301 299 299 299 299 298 297 297 297 296 295 295 294 293 292 291 290 290 290 290 289 289 288 287 285 284 283 281 279 276 274 272 269 267 264 263 262 261 260 259 257 257 256 255 254 253
314 313 312 311 311 312 313 313 313 313 313 311 310 310 309 309 307 307 306 306 306 304 302 300 299 299 298 298 297 297 297 296 296 295 295 294 293 292 291 291 291 291 291 291 290 289 288 286 285 284 282 280 278 275 272 269 266 264 262 261 260 259 258 257 256 255 254 253 251
312 311 311 311 312 313 314 314 314 314 313 311 310 310 309 309 308 307 307 306 306 305 303 302 301 301 301 300 299 298 298 297 297 296 295 294 294 293 292 292 292 293 293 292 291 290 289 288 286 285 284 282 279 276 273 269 266 264 262 261 259 258 257 256 255 253 252 251 250
310 311 312 313 313 314 314 314 314 314 312 311 310 310 309 308 308 308 308 308 307 306 304 304 303 303 302 301 300 299 298 298 297 296 295 295 294 293 292 292 293 293 294 294 293 292 291 290 289 287 286 283 280 277 274 270 267 264 263 261 260 258 256 255 254 252 251 250 248
310 311 313 314 314 314 314 314 314 312 311 311 310 310 309 309 309 309 309 309 307 306 305 304 304 303 302 301 300 299 299 298 297 296 295 295 294 293 293 293 293 294 295 295 295 294 293 292 291 290 288 285 282 279 275 272 269 266 263 262 261 259 256 254 253 251 250 248 246
310 312 314 314 314 314 314 314 313 311 310 310 309 309 309 309 309 309 309 308 306 305 304 304 303 302 301 301 300 300 299 299 298 297 295 295 295 294 294 293 293 293 294 295 296 295 295 294 293 292 290 287 284 280 277 273 270 267 264 263 261 260 257 254 252 251 250 248 247
312 315 316 315 315 314 314 313 312 311 310 310 309 309 309 308 308 308 308 307 306 305 303 303 302 301 301 301 301 300 299 299 299 298 297 296 296 296 295 294 293 293 294 295 296 296 295 295 294 293 291 288 285 282 278 274 270 268 266 263 262 260 258 256 252 250 249 248 247
315 317 317 317 315 314 313 313 312 312 311 310 309 308 308 308 307 307 307 307 306 305 304 302 301 301 301 301 300 299 299 299 299 299 298 298 297 297 296 295 294 293 294 295 296 296 296 295 294 293 292 289 286 283 279 275 271 268 266 264 262 260 258 257 254 250 248 247 246
Height
795 795 796 796 797 797 797 797 798 798 798 798 797 797 797 797 796 796 796 796 795 795 795 794 794 793 792 792 791 790 790 789 788 787 786 786 785 784 783 782 781 780 780 779 778 777 776 776 775 774 773 772 771 770 770 769 769 769 768 767 766 766 765 765 764 764 764 763 763
795 795 795 796 796 796 796 797 797 797 797 796 796 796 796 795 795 795 795 795 794 794 793 792 792 791 790 790 789 789 788 787 786 785 784 783 782 781 781 780 779 778 777 776 775 775 774 774 773 772 771 770 769 768 767 766 767 766 766 765 765 764 763 763 762 762 762 761 761
794 795 795 795 795 795 796 796 796 796 796 795 795 795 795 795 794 794 794 793 793 792 791 790 790 789 788 788 787 786 785 785 784 783 782 781 780 779 778 777 776 776 775 774 773 772 772 771 770 770 769 768 767 766 765 764 764 764 763 763 762 762 761 760 760 760 760 759 759
794 794 794 795 795 795 795 795 795 795 795 794 794 794 793 793 793 792 792 791 791 790 790 789 788 787 786 785 785 784 783 782 781 780 779 778 777 776 775 775 774 773 772 771 770 770 769 769 768 767 766 765 764 764 763 762 762 761 761 760 760 760 759 758 757 757 757 756 756
793 793 794 794 794 794 794 794 794 794 793 793 793 792 792 792 791 791 790 790 789 788 787 787 785 785 784 783 782 781 780 780 779 778 776 775 775 774 773 772 771 770 769 769 768 767 766 766 765 765 763 762 762 761 760 760 759 759 758 758 757 757 756 755 755 755 754 754 754
793 793 793 793 793 793 793 793 793 793 792 792 792 791 791 790 790 789 789 788 787 786 785 784 783 782 781 781 780 779 778 777 776 775 774 773 771 771 770 769 768 767 766 766 765 765 764 764 763 762 761 760 759 758 757 757 756 756 755 755 754 754 753 753 752 752 751 751 750
792 792 792 792 792 792 792 792 792 791 791 790 790 790 790 789 788 788 787 786 785 784 783 782 781 780 779 778 777 776 775 774 773 772 771 770 769 768 767 766 765 764 764 763 762 762 761 761 760 759 758 757 756 755 754 754 754 753 752 751 751 750 750 749 749 749 749 748 748
791 791 791 791 791 791 791 791 790 790 790 789 789 788 788 787 786 785 785 784 783 782 781 780 779 778 777 776 775 774 773 772 770 770 769 768 766 765 764 763 762 762 761 760 760 759 758 758 758 757 755 755 754 752 751 751 750 750 749 748 747 747 746 746 745 745 745 745 745
790 790 790 790 790 790 790 790 789 789 788 788 787 786 785 785 784 783 782 781 780 780 779 778 777 776 775 774 772 771 770 769 768 767 766 765 764 763 762 761 760 759 759 758 757 756 756 755 755 753 752 752 750 749 749 748 748 747 746 745 745 744 743 743 742 742 742 741 741
790 790 790 789 789 789 788 788 787 787 786 785 785 784 783 783 782 781 780 779 778 777 776 775 774 773 772 771 770 769 768 767 766 765 764 763 762 761 760 759 758 757 756 755 755 754 754 753 751 750 749 748 747 746 745 745 745 744 743 743 742 741 740 740 740 739 739 738 738
789 789 788 788 788 787 787 786 785 785 785 784 783 782 781 781 780 779 778 777 776 775 774 773 772 771 770 769 768 767 766 765 764 763 761 760 759 758 757 756 755 755 754 753 752 752 751 750 748 747 746 745 745 744 743 742 741 741 740 740 739 738 737 736 736 736 735 735 735
788 787 787 787 786 785 785 785 784 783 783 782 781 780 780 779 778 777 776 775 775 773 772 771 770 769 768 767 766 765 764 763 762 760 759 758 757 755 755 754 753 752 751 750 750 749 748 747 745 744 743 742 742 741 740 739 738 738 737 736 735 735 734 733 733 733 732 732 732
786 786 785 785 784 784 783 783 782 782 781 780 780 779 778 778 777 776 775 774 773 771 770 769 768 767 766 765 764 763 762 760 759 758 757 755 754 753 752 751 750 749 748 747 747 746 745 744 743 742 740 740 739 738 737 736 735 735 734 733 732 731 730 730 730 729 729 729 729
785 784 784 783 782 782 781 781 780 780 779 779 778 777 776 775 775 774 773 772 771 770 768 767 766 765 764 763 761 760 759 758 757 755 754 753 751 750 749 748 747 746 745 745 744 743 742 741 740 739 738 737 736 735 734 733 733 732 730 730 729 728 727 726 726 726 726 726 726
783 782 782 781 781 780 780 779 779 778 777 777 776 775 775 774 773 772 771 770 769 767 766 765 764 762 761 760 759 758 756 755 754 753 751 750 749 748 747 745 745 744 743 742 741 740 739 738 737 736 735 734 733 732 731 730 730 728 727 726 725 724 724 723 723 723 723 722 722
781 780 780 780 779 779 778 778 777 776 776 775 774 774 773 772 771 770 769 767 766 765 764 762 761 760 759 758 757 755 754 753 751 750 749 747 746 745 744 743 742 741 740 739 738 737 736 735 735 734 733 731 730 729 728 727 726 725 724 723 722 721 720 720 719 719 719 719 719
779 779 778 778 777 777 776 776 775 775 774 773 772 771 771 770 768 767 766 765 764 762 761 760 759 757 756 755 754 753 751 750 749 748 746 745 744 742 741 740 739 738 737 736 735 734 733 732 732 731 730 729 727 726 725 724 723 722 721 720 719 718 717 716 716 715 715 715 715
777 777 776 776 775 775 775 774 773 773 772 771 770 769 768 767 766 765 764 762 761 760 758 757 756 755 753 752 751 750 749 747 746 745 744 742 741 740 739 737 736 735 734 733 732 731 730 729 729 728 727 726 725 724 722 721 720 719 718 717 716 715 714 713 712 712 712 711 711
775 775 775 774 774 773 773 772 771 770 770 769 768 767 766 765 764 762 761 760 759 758 756 754 753 752 750 749 748 747 746 745 743 742 740 739 738 737 736 734 733 732 731 730 729 728 727 726 725 725 724 723 722 720 720 719 717 716 715 714 713 712 711 710 709 709 708 708 707
774 773 773 773 772 771 771 770 769 769 768 767 765 765 763 762 761 760 759 757 756 755 754 752 750 749 747 746 745 744 743 742 740 739 738 736 735 734 733 731 730 729 728 727 726 725 724 723 722 721 721 720 719 718 717 716 715 713 712 711 710 709 708 707 706 706 705 705 704
772 772 771 771 770 770 769 768 767 766 765 764 763 762 761 760 759 757 756 755 754 752 751 750 748 746 745 744 742 741 740 739 738 736 735 734 732 731 730 729 727 726 725 724 723 722 721 720 719 718 718 717 716 715 714 713 712 710 709 708 707 706 705 704 703 703 702 701 700
770 770 769 769 768 768 767 766 765 764 763 762 761 760 758 757 756 755 753 752 751 750 748 747 745 744 743 741 740 738 737 735 735 733 732 731 730 728 727 726 725 723 722 720 720 719 718 717 716 715 715 714 713 711 711 710 709 707 706 705 704 703 702 701 700 700 699 698 697
768 768 767 767 766 765 765 764 763 762 761 760 758 757 756 755 753 752 750 749 748 747 745 744 743 742 740 739 737 736 734 732 731 730 729 728 727 725 724 723 722 720 719 718 717 716 715 714 713 712 712 711 710 709 708 707 706 705 703 702 701 700 699 698 697 696 696 695 694
766 766 765 765 764 763 762 761 760 760 759 757 756 755 754 752 751 749 748 746 745 744 743 742 740 739 738 736 735 733 732 730 728 727 725 725 724 723 721 720 719 717 716 715 714 713 713 712 711 710 709 708 707 706 705 704 703 702 700 699 698 697 695 695 694 693 693 692 691
765 764 763 763 762 761 760 759 758 757 756 755 754 753 752 750 749 747 746 744 743 742 740 739 738 736 735 733 732 731 729 728 726 724 723 721 721 720 719 718 716 715 713 712 711 711 710 710 709 708 706 705 704 703 702 701 700 699 698 697 695 694 693 691 690 690 689 689 688
763 762 761 760 760 759 758 757 756 755 754 753 752 751 750 748 747 745 744 742 740 739 738 737 735 734 733 731 730 728 727 725 724 722 720 719 718 717 716 715 714 712 710 709 709 708 707 707 706 705 704 703 702 700 699 698 697 696 695 694 693 692 690 689 687 686 686 685 685
761 760 759 758 758 757 756 755 754 753 752 751 750 749 748 747 745 743 742 740 739 737 736 735 733 732 730 729 727 725 724 723 721 720 718 717 715 714 713 712 711 709 708 707 706 705 704 704 703 702 701 700 699 698 696 695 694 693 692 691 690 689 687 686 685 684 683 682 682
759 758 757 756 755 755 754 753 752 751 750 750 749 747 746 745 743 742 740 738 737 735 734 732 731 730 728 726 725 723 722 720 719 717 715 714 713 712 710 709 708 706 705 704 703 702 701 700 699 699 698 697 696 695 694 692 691 690 689 688 686 685 684 683 682 681 680 680 679
757 756 755 754 754 753 752 751 750 750 749 748 747 745 744 743 741 740 738 736 735 733 732 730 729 727 726 724 722 721 719 718 716 715 713 711 710 709 708 706 705 703 702 700 700 699 698 697 696 695 695 694 693 692 690 689 688 687 685 684 683 682 681 680 679 678 677 677 676
755 754 753 753 752 751 750 750 749 748 747 746 745 744 742 741 739 738 736 735 733 731 730 728 727 725 724 722 720 719 717 715 714 712 711 709 708 706 705 703 702 700 698 697 696 695 694 693 692 691 691 690 690 689 688 686 685 684 682 680 679 678 677 676 675 675 674 674 673
754 753 752 751 750 750 749 748 747 746 745 744 743 742 740 739 737 736 734 733 731 729 728 726 725 723 721 720 718 716 715 713 711 710 708 707 705 703 702 700 698 697 695 694 693 692 691 690 689 688 687 687 686 686 685 683 682 680 679 677 676 675 674 673 672 671 671 670 670
752 751 750 750 749 748 747 746 745 745 744 742 741 740 738 737 735 734 732 731 729 727 725 724 722 720 719 717 715 714 712 710 709 707 706 705 703 701 699 697 695 693 692 690 690 688 687 686 685 684 683 683 683 682 681 680 678 677 675 674 672 671 671 670 669 668 667 667 667
751 750 749 748 747 746 746 745 744 743 741 740 739 738 736 735 733 731 730 728 727 725 723 721 720 718 716 715 713 711 709 708 706 705 703 702 700 698 696 694 692 690 689 687 686 685 684 683 681 680 680 679 679 678 677 675 674 673 671 670 668 667 667 666 665 665 664 664 663
749 748 748 747 746 745 744 743 742 741 739 738 737 735 734 733 731 729 727 726 725 723 721 719 718 716 714 712 711 709 707 705 704 702 701 699 698 696 694 691 689 687 685 684 683 681 680 679 678 677 676 675 675 674 673 671 670 669 667 665 664 663 663 662 661 660 660 660 660
748 747 746 745 745 744 742 741 740 739 737 736 735 733 732 730 729 727 725 724 722 720 719 717 715 714 712 710 709 707 705 703 701 700 698 697 695 693 691 688 686 684 682 681 680 678 677 675 674 673 672 671 671 670 668 667 666 664 663 661 660 659 658 658 657 656 656 655 655
746 745 745 744 743 742 741 740 738 737 735 734 732 731 730 728 727 725 724 722 720 718 716 715 713 712 710 708 706 705 703 701 699 697 696 694 692 690 688 685 683 680 679 678 676 675 673 672 670 669 668 668 667 665 664 663 661 660 658 657 656 655 654 653 652 651 651 651 650
745 744 743 742 741 740 739 738 737 735 734 732 731 729 728 726 724 723 721 720 718 716 714 713 711 710 708 706 704 702 700 699 697 695 693 691 690 688 685 683 680 678 675 674 673 671 670 668 667 665 665 664 663 662 660 659 657 656 654 653 651 650 649 648 647 647 646 646 645
744 743 742 741 740 739 738 736 735 734 732 730 729 727 726 725 723 721 720 718 717 715 712 710 709 707 706 704 702 700 698 696 695 693 691 689 687 685 683 680 678 675 673 671 669 668 666 665 663 662 661 660 659 658 657 655 654 652 650 649 647 645 645 644 643 642 641 640 640
743 742 741 740 739 737 736 735 733 732 731 729 727 725 724 722 721 719 718 717 715 713 711 709 707 705 704 702 700 698 695 694 692 691 689 687 685 683 681 679 675 673 670 668 666 665 663 662 660 659 657 657 656 655 653 652 650 648 646 645 643 641 640 639 638 637 636 635 635
741 741 740 739 737 736 735 733 732 730 729 728 726 724 722 721 719 717 716 715 713 712 710 708 705 704 702 700 698 696 693 691 689 688 686 684 682 680 679 676 674 670 668 665 664 662 660 659 657 655 654 653 652 651 650 648 646 645 643 641 639 637 636 635 634 632 631 630 630
740 739 738 737 736 735 733 731 730 729 727 726 725 723 721 719 717 716 714 713 711 710 708 706 704 702 700 698 696 694 691 689 686 685 683 682 680 678 675 674 671 668 665 663 661 659 657 655 654 652 651 650 649 648 646 645 643 640 639 637 635 634 632 630 629 628 626 625 625